When you browse on this site, cookies collect data to enhance your experience and personalize the content and advertising you see.
Visit our Privacy Policy to learn more. By continuing to use the site, you agree to this use of cookies and data.
  • în România
  • Lista ţărilor
  • Pe 7 zile
  • Temperatura apei
  • Hartă satelitară
  • Meteo pe hartă
  • Widget-uri
  • user-avatar
    Intrare

    Meteo pe oră la Saint-Genis-Laval

    Astăzi, 25 Iunie, Marţi

    Timp Temperatura Precipitaţii Vânt Presiune Umiditate
    00:00 +23°C° 0 mm 2 m/s 745 mmHg 62%
    01:00 +21°C° 0 mm 2 m/s 745 mmHg 63%
    02:00 +20°C° 0 mm 2 m/s 745 mmHg 64%
    03:00 +20°C° 0 mm 2 m/s 745 mmHg 64%
    04:00 +21°C° 0 mm 2 m/s 745 mmHg 65%
    05:00 +21°C° 0 mm 2 m/s 745 mmHg 65%
    06:00 +23°C° 0 mm 2 m/s 746 mmHg 66%
    07:00 +25°C° 0 mm 2 m/s 746 mmHg 60%
    08:00 +27°C° 0 mm 3 m/s 746 mmHg 55%
    09:00 +29°C° 0 mm 3 m/s 746 mmHg 49%
    10:00 +31°C° 0 mm 3 m/s 746 mmHg 45%
    11:00 +34°C° 0 mm 4 m/s 746 mmHg 42%
    12:00 +35°C° 0 mm 4 m/s 746 mmHg 39%
    13:00 +36°C° 0 mm 4 m/s 746 mmHg 39%
    14:00 +36°C° 0 mm 4 m/s 746 mmHg 39%
    15:00 +36°C° 0 mm 4 m/s 746 mmHg 40%
    16:00 +35°C° 0 mm 3 m/s 746 mmHg 43%
    17:00 +34°C° 0 mm 2 m/s 746 mmHg 47%
    18:00 +32°C° 0 mm 2 m/s 747 mmHg 51%
    19:00 +31°C° 0 mm 2 m/s 747 mmHg 53%
    20:00 +29°C° 0 mm 2 m/s 747 mmHg 56%
    21:00 +27°C° 0 mm 2 m/s 748 mmHg 58%
    22:00 +26°C° 0 mm 2 m/s 748 mmHg 59%
    23:00 +25°C° 0 mm 2 m/s 748 mmHg 61%

    Mâine, 26 Iunie, Miercuri

    Timp Temperatura Precipitaţii Vânt Presiune Umiditate
    00:00 +24°C° 0 mm 2 m/s 748 mmHg 63%
    01:00 +23°C° 0 mm 2 m/s 748 mmHg 65%
    02:00 +21°C° 0 mm 2 m/s 748 mmHg 66%
    03:00 +21°C° 0 mm 2 m/s 747 mmHg 68%
    04:00 +23°C° 0 mm 2 m/s 748 mmHg 68%
    05:00 +23°C° 0 mm 2 m/s 748 mmHg 68%
    06:00 +24°C° 0 mm 2 m/s 748 mmHg 68%
    07:00 +26°C° 0 mm 2 m/s 748 mmHg 62%
    08:00 +28°C° 0 mm 2 m/s 748 mmHg 56%
    09:00 +31°C° 0 mm 3 m/s 748 mmHg 50%
    10:00 +33°C° 0 mm 3 m/s 748 mmHg 46%
    11:00 +35°C° 0 mm 3 m/s 748 mmHg 42%
    12:00 +37°C° 0 mm 4 m/s 748 mmHg 38%
    13:00 +37°C° 0 mm 3 m/s 747 mmHg 38%
    14:00 +37°C° 0 mm 3 m/s 747 mmHg 39%
    15:00 +37°C° 0 mm 3 m/s 747 mmHg 39%
    16:00 +36°C° 0 mm 3 m/s 747 mmHg 45%
    17:00 +35°C° 0 mm 2 m/s 747 mmHg 50%
    18:00 +34°C° 0 mm 2 m/s 747 mmHg 55%
    19:00 +31°C° 0 mm 2 m/s 747 mmHg 56%
    20:00 +29°C° 0 mm 2 m/s 748 mmHg 57%
    21:00 +27°C° 0 mm 1 m/s 748 mmHg 58%
    22:00 +27°C° 0 mm 1 m/s 748 mmHg 60%
    23:00 +26°C° 0 mm 1 m/s 748 mmHg 61%

    Poimâine, 27 Iunie, Joi

    Timp Temperatura Precipitaţii Vânt Presiune Umiditate
    00:00 +25°C° 0 mm 1 m/s 748 mmHg 62%
    01:00 +24°C° 0 mm 1 m/s 748 mmHg 63%
    02:00 +24°C° 0 mm 1 m/s 748 mmHg 64%
    03:00 +23°C° 0 mm 1 m/s 747 mmHg 65%
    04:00 +24°C° 0 mm 1 m/s 747 mmHg 65%
    05:00 +25°C° 0 mm 1 m/s 748 mmHg 64%
    06:00 +26°C° 0 mm 1 m/s 748 mmHg 64%
    07:00 +28°C° 0 mm 1 m/s 748 mmHg 59%
    08:00 +30°C° 0 mm 1 m/s 747 mmHg 54%
    09:00 +32°C° 0 mm 1 m/s 747 mmHg 48%
    10:00 +33°C° 0 mm 1 m/s 747 mmHg 46%
    11:00 +35°C° 0 mm 1 m/s 747 mmHg 43%
    12:00 +37°C° 0 mm 1 m/s 747 mmHg 40%
    13:00 +37°C° 0 mm 1 m/s 746 mmHg 39%
    14:00 +39°C° 0 mm 1 m/s 746 mmHg 38%
    15:00 +39°C° 0 mm 1 m/s 746 mmHg 37%
    16:00 +37°C° 0 mm 1 m/s 746 mmHg 43%
    17:00 +36°C° 0 mm 1 m/s 745 mmHg 49%
    18:00 +36°C° 0 mm 2 m/s 745 mmHg 55%
    19:00 +34°C° 0 mm 2 m/s 746 mmHg 63%
    20:00 +31°C° 0 mm 2 m/s 746 mmHg 72%
    21:00 +29°C° 0 mm 2 m/s 746 mmHg 80%
    22:00 +28°C° 0 mm 2 m/s 746 mmHg 83%
    23:00 +27°C° 0 mm 2 m/s 746 mmHg 85%

    28 Iunie, Vineri

    Timp Temperatura Precipitaţii Vânt Presiune Umiditate
    00:00 +27°C° 0 mm 1 m/s 746 mmHg 88%
    01:00 +26°C° 0 mm 1 m/s 746 mmHg 88%
    02:00 +25°C° 0 mm 1 m/s 746 mmHg 89%
    03:00 +25°C° 0 mm 1 m/s 745 mmHg 90%
    04:00 +25°C° 0 mm 1 m/s 745 mmHg 87%
    05:00 +25°C° 0 mm 1 m/s 745 mmHg 85%
    06:00 +26°C° 0 mm 1 m/s 745 mmHg 82%
    07:00 +27°C° 0 mm 1 m/s 745 mmHg 76%
    08:00 +29°C° 0 mm 2 m/s 745 mmHg 71%
    09:00 +31°C° 0 mm 2 m/s 744 mmHg 65%
    10:00 +32°C° 0 mm 2 m/s 744 mmHg 60%
    11:00 +34°C° 0 mm 3 m/s 744 mmHg 55%
    12:00 +36°C° 0 mm 3 m/s 744 mmHg 50%
    13:00 +36°C° 0 mm 3 m/s 744 mmHg 48%
    14:00 +36°C° 0 mm 4 m/s 743 mmHg 46%
    15:00 +37°C° 0 mm 4 m/s 743 mmHg 44%
    16:00 +35°C° 0 mm 4 m/s 743 mmHg 48%
    17:00 +34°C° 0 mm 3 m/s 743 mmHg 53%
    18:00 +31°C° 0 mm 3 m/s 743 mmHg 58%
    19:00 +29°C° 0 mm 3 m/s 744 mmHg 62%
    20:00 +27°C° 0 mm 2 m/s 744 mmHg 67%
    21:00 +25°C° 0 mm 2 m/s 744 mmHg 72%
    22:00 +25°C° 0 mm 2 m/s 744 mmHg 73%
    23:00 +24°C° 0 mm 1 m/s 744 mmHg 74%

    29 Iunie, Sâmbătă

    Timp Temperatura Precipitaţii Vânt Presiune Umiditate
    00:00 +23°C° 0 mm 1 m/s 744 mmHg 75%
    01:00 +22°C° 0 mm 1 m/s 744 mmHg 77%
    02:00 +22°C° 0 mm 1 m/s 743 mmHg 78%
    03:00 +21°C° 0 mm 1 m/s 743 mmHg 80%
    04:00 +22°C° 0 mm 1 m/s 743 mmHg 78%
    05:00 +21°C° 0 mm 0 m/s 743 mmHg 76%
    06:00 +21°C° 0 mm 0 m/s 743 mmHg 73%
    07:00 +24°C° 0 mm 0 m/s 743 mmHg 66%
    08:00 +26°C° 0 mm 0 m/s 743 mmHg 59%
    09:00 +28°C° 0 mm 0 m/s 743 mmHg 52%
    10:00 +32°C° 0 mm 1 m/s 743 mmHg 47%
    11:00 +33°C° 0 mm 1 m/s 743 mmHg 43%
    12:00 +35°C° 0 mm 1 m/s 743 mmHg 39%
    13:00 +35°C° 0 mm 1 m/s 743 mmHg 38%
    14:00 +36°C° 0 mm 1 m/s 742 mmHg 37%
    15:00 +36°C° 0 mm 1 m/s 742 mmHg 35%
    16:00 +35°C° 0 mm 1 m/s 742 mmHg 40%
    17:00 +34°C° 0 mm 1 m/s 743 mmHg 45%
    18:00 +31°C° 0 mm 0 m/s 743 mmHg 50%
    19:00 +32°C° 0 mm 1 m/s 743 mmHg 53%
    20:00 +30°C° 0 mm 1 m/s 743 mmHg 57%
    21:00 +28°C° 0 mm 2 m/s 744 mmHg 60%
    22:00 +27°C° 0 mm 2 m/s 744 mmHg 63%
    23:00 +27°C° 0 mm 2 m/s 744 mmHg 65%

    30 Iunie, Duminică

    Timp Temperatura Precipitaţii Vânt Presiune Umiditate
    00:00 +26°C° 0 mm 2 m/s 744 mmHg 68%
    01:00 +25°C° 0 mm 2 m/s 744 mmHg 70%
    02:00 +25°C° 0 mm 2 m/s 744 mmHg 73%
    03:00 +24°C° 0 mm 2 m/s 744 mmHg 75%
    04:00 +25°C° 0 mm 1 m/s 744 mmHg 74%
    05:00 +25°C° 0 mm 1 m/s 744 mmHg 73%
    06:00 +26°C° 0 mm 1 m/s 745 mmHg 72%
    07:00 +28°C° 0 mm 1 m/s 745 mmHg 66%
    08:00 +30°C° 0 mm 1 m/s 745 mmHg 61%
    09:00 +32°C° 0 mm 1 m/s 745 mmHg 55%
    10:00 +33°C° 0 mm 1 m/s 745 mmHg 52%
    11:00 +35°C° 0 mm 1 m/s 744 mmHg 48%
    12:00 +36°C° 0 mm 1 m/s 744 mmHg 45%
    13:00 +36°C° 0 mm 1 m/s 744 mmHg 43%
    14:00 +37°C° 0 mm 1 m/s 744 mmHg 42%
    15:00 +37°C° 0 mm 1 m/s 744 mmHg 41%
    16:00 +36°C° 0 mm 1 m/s 744 mmHg 45%
    17:00 +36°C° 0 mm 1 m/s 744 mmHg 50%
    18:00 +35°C° 0 mm 1 m/s 744 mmHg 54%
    19:00 +33°C° 0 mm 1 m/s 744 mmHg 57%
    20:00 +31°C° 0 mm 1 m/s 744 mmHg 61%
    21:00 +30°C° 0 mm 1 m/s 745 mmHg 64%
    22:00 +29°C° 0 mm 1 m/s 744 mmHg 68%
    23:00 +27°C° 0 mm 1 m/s 744 mmHg 73%
    Arată mai mult